This demonstration page uses our WeatherBlox Daily Observations layout. Learn more.

Left ArrowRight Arrow

36.17497, -115.13722

Hourly Observations for March 23, 2016

Temp ( °F °C ) Dew Point ( °F °C ) Humidity (%) Winds ( mph kmh ) Pressure ( in mb ) Visibility ( mi km ) Precip ( " mm )
12:53 am 00:53 Clear 54 12.2 16 -8.9 22 22 NNW 18 30 30.12 1020 10 16.0934 0 0
1:53 am 01:53 Clear 53 11.7 15 -9.4 22 22 NNW 16 26 30.12 1020 10 16.0934 0 0
2:53 am 02:53 Clear 52 11.1 14 -10 22 22 NNW 17 28 30.13 1020 10 16.0934 0 0
3:53 am 03:53 Clear 51 10.6 14 -10 23 23 NNW 17 28 30.14 1021 10 16.0934 0 0
4:53 am 04:53 Clear 51 10.6 15 -9.4 24 24 NNW 18 30 30.15 1021 10 16.0934 0 0
5:53 am 05:53 Clear 50 10 15 -9.4 25 25 N 15 24 30.19 1022 10 16.0934 0 0
6:53 am 06:53 Sunny 49 9.4 17 -8.3 28 28 N 13 20 30.22 1023 10 16.0934 0 0
7:53 am 07:53 Sunny 51 10.6 17 -8.3 26 26 N 13 20 30.24 1024 10 16.0934 0 0
8:53 am 08:53 Sunny 54 12.2 17 -8.3 23 23 NNW 22 35 30.24 1024 10 16.0934 0 0
9:53 am 09:53 Sunny 56 13.3 15 -9.4 20 20 NNW 20 31 30.26 1025 10 16.0934 0 0
10:53 am 10:53 Sunny 59 15 16 -8.9 18 18 NNW 18 30 30.26 1025 10 16.0934 0 0
11:53 am 11:53 Sunny 62 16.7 15 -9.4 16 16 NNW 21 33 30.25 1025 10 16.0934 0 0
12:53 pm 12:53 Sunny 64 17.8 14 -10 14 14 NNW 17 28 30.24 1024 10 16.0934 0 0
1:53 pm 13:53 Sunny 66 18.9 13 -10.6 13 13 undefined N/A 30.22 1023 10 16.0934 0 0
2:53 pm 14:53 Sunny 66 18.9 14 -10 13 13 VRB 3 6 30.2 1023 10 16.0934 0 0
3:53 pm 15:53 Sunny 67 19.4 12 -11.1 12 12 VRB 6 9 30.19 1023 10 16.0934 0 0
4:53 pm 16:53 Sunny 67 19.4 12 -11.1 12 12 S 5 7 30.18 1022 10 16.0934 0 0
5:53 pm 17:53 Sunny 68 20 11 -11.7 11 11 NW 10 17 30.17 1022 10 16.0934 0 0
6:53 pm 18:53 Sunny 67 19.4 12 -11.1 12 12 N 8 13 30.17 1022 10 16.0934 0 0
7:53 pm 19:53 Clear 64 17.8 13 -10.6 13 13 Calm 30.18 1022 10 16.0934 0 0
8:53 pm 20:53 Clear 63 17.2 13 -10.6 14 14 Calm 30.19 1022 10 16.0934 0 0
9:53 pm 21:53 Clear 59 15 15 -9.4 18 18 N 5 7 30.2 1023 10 16.0934 0 0
10:53 pm 22:53 Clear 57 13.9 15 -9.4 19 19 N 6 9 30.2 1023 10 16.0934 0 0
11:53 pm 23:53 Clear 55 12.8 15 -9.4 20 20 N 6 9 30.19 1022 10 16.0934 0 0

Powered by AerisWeather